When you browse on this site, cookies collect data to enhance your experience and personalize the content and advertising you see.
Visit our Privacy Policy to learn more. By continuing to use the site, you agree to this use of cookies and data.
  • In Czech Republic
  • List of Countries
  • For 7 days
  • Water Temperature
  • Weather Map
  • Weather Widgets
  • user-avatar
    Login

    Hourly Weather Aleksandrovka

    Today, 20 January, Monday

    Time Temperature Precipitation Wind Pressure Humidity
    00:00 -1°C° 0 mm 5 mps 755 mmHg 89%
    01:00 0°C° 0 mm 5 mps 755 mmHg 88%
    02:00 0°C° 0 mm 5 mps 755 mmHg 88%
    03:00 0°C° 0 mm 5 mps 755 mmHg 89%
    04:00 0°C° 0 mm 5 mps 754 mmHg 89%
    05:00 0°C° 0 mm 5 mps 754 mmHg 90%
    06:00 0°C° 0 mm 5 mps 754 mmHg 91%
    07:00 0°C° 0 mm 5 mps 754 mmHg 93%
    08:00 -1°C° 0 mm 5 mps 754 mmHg 94%
    09:00 0°C° 0 mm 5 mps 754 mmHg 92%
    10:00 0°C° 0 mm 5 mps 754 mmHg 90%
    11:00 0°C° 0 mm 5 mps 754 mmHg 88%
    12:00 0°C° 0 mm 5 mps 754 mmHg 90%
    13:00 -1°C° 0 mm 5 mps 754 mmHg 91%
    14:00 -1°C° 0 mm 4 mps 754 mmHg 93%
    15:00 -1°C° 0 mm 4 mps 754 mmHg 93%
    16:00 -1°C° 0 mm 4 mps 754 mmHg 93%
    17:00 -1°C° 0 mm 4 mps 753 mmHg 93%
    18:00 -1°C° 0 mm 4 mps 753 mmHg 91%
    19:00 -1°C° 0 mm 4 mps 753 mmHg 90%
    20:00 -1°C° 0 mm 5 mps 752 mmHg 88%
    21:00 -1°C° 0 mm 5 mps 752 mmHg 87%
    22:00 -1°C° 0 mm 5 mps 751 mmHg 85%
    23:00 -2°C° 0 mm 4 mps 751 mmHg 84%

    Tomorrow, 21 January, Tuesday

    Time Temperature Precipitation Wind Pressure Humidity
    00:00 -2°C° 0 mm 5 mps 750 mmHg 86%
    01:00 -2°C° 0 mm 5 mps 750 mmHg 89%
    02:00 -2°C° 0 mm 5 mps 749 mmHg 91%
    03:00 -3°C° 0.2 mm 6 mps 748 mmHg 91%
    04:00 -2°C° 0.2 mm 6 mps 747 mmHg 90%
    05:00 -2°C° 0.2 mm 6 mps 746 mmHg 89%
    06:00 -1°C° 0.3 mm 6 mps 745 mmHg 89%
    07:00 -1°C° 0.3 mm 6 mps 744 mmHg 88%
    08:00 +1°C° 0.3 mm 6 mps 743 mmHg 88%
    09:00 +1°C° 0.1 mm 6 mps 743 mmHg 88%
    10:00 +2°C° 0.1 mm 6 mps 742 mmHg 89%
    11:00 +2°C° 0.1 mm 6 mps 741 mmHg 89%
    12:00 +2°C° 0 mm 5 mps 741 mmHg 89%
    13:00 +2°C° 0 mm 5 mps 741 mmHg 89%
    14:00 +3°C° 0 mm 5 mps 740 mmHg 90%
    15:00 +3°C° 0.3 mm 5 mps 739 mmHg 91%
    16:00 +3°C° 0.3 mm 5 mps 738 mmHg 92%
    17:00 +3°C° 0.3 mm 4 mps 737 mmHg 93%
    18:00 +3°C° 0.8 mm 5 mps 736 mmHg 92%
    19:00 +3°C° 0.8 mm 6 mps 736 mmHg 91%
    20:00 +3°C° 0.8 mm 6 mps 736 mmHg 90%
    21:00 +1°C° 0 mm 6 mps 736 mmHg 85%
    22:00 -1°C° 0 mm 7 mps 736 mmHg 80%
    23:00 -2°C° 0 mm 7 mps 737 mmHg 75%

    Day after tomorrow, 22 January, Wednesday

    Time Temperature Precipitation Wind Pressure Humidity
    00:00 -3°C° 0 mm 6 mps 737 mmHg 76%
    01:00 -2°C° 0 mm 5 mps 737 mmHg 77%
    02:00 -4°C° 0 mm 5 mps 737 mmHg 78%
    03:00 -4°C° 0 mm 5 mps 737 mmHg 78%
    04:00 -4°C° 0 mm 5 mps 736 mmHg 78%
    05:00 -4°C° 0 mm 5 mps 735 mmHg 78%
    06:00 -4°C° 0 mm 5 mps 735 mmHg 79%
    07:00 -4°C° 0 mm 5 mps 735 mmHg 80%
    08:00 -4°C° 0 mm 5 mps 734 mmHg 80%
    09:00 -4°C° 0.2 mm 6 mps 734 mmHg 78%
    10:00 -3°C° 0.2 mm 6 mps 733 mmHg 75%
    11:00 -3°C° 0.2 mm 7 mps 733 mmHg 72%
    12:00 -3°C° 0.1 mm 6 mps 733 mmHg 70%
    13:00 -3°C° 0.1 mm 6 mps 733 mmHg 68%
    14:00 -2°C° 0.1 mm 5 mps 733 mmHg 66%
    15:00 -2°C° 0 mm 5 mps 733 mmHg 70%
    16:00 -4°C° 0 mm 5 mps 733 mmHg 73%
    17:00 -5°C° 0 mm 5 mps 733 mmHg 77%
    18:00 -5°C° 0 mm 6 mps 733 mmHg 79%
    19:00 -5°C° 0 mm 6 mps 734 mmHg 81%
    20:00 -5°C° 0 mm 6 mps 734 mmHg 83%
    21:00 -5°C° 0.1 mm 6 mps 735 mmHg 81%
    22:00 -5°C° 0.1 mm 6 mps 735 mmHg 79%
    23:00 -7°C° 0.1 mm 7 mps 736 mmHg 77%

    23 January, Thursday

    Time Temperature Precipitation Wind Pressure Humidity
    00:00 -6°C° 0 mm 6 mps 737 mmHg 75%
    01:00 -8°C° 0 mm 6 mps 738 mmHg 73%
    02:00 -8°C° 0 mm 6 mps 738 mmHg 71%
    03:00 -9°C° 0 mm 6 mps 739 mmHg 69%
    04:00 -9°C° 0 mm 6 mps 739 mmHg 67%
    05:00 -9°C° 0 mm 7 mps 740 mmHg 65%
    06:00 -9°C° 0 mm 6 mps 740 mmHg 63%
    07:00 -9°C° 0 mm 6 mps 741 mmHg 61%
    08:00 -8°C° 0 mm 5 mps 741 mmHg 60%
    09:00 -9°C° 0.1 mm 6 mps 742 mmHg 62%
    10:00 -9°C° 0.1 mm 6 mps 742 mmHg 65%
    11:00 -9°C° 0.1 mm 6 mps 743 mmHg 67%
    12:00 -9°C° 0 mm 6 mps 744 mmHg 64%
    13:00 -8°C° 0 mm 5 mps 744 mmHg 61%
    14:00 -8°C° 0 mm 5 mps 745 mmHg 57%
    15:00 -8°C° 0 mm 5 mps 745 mmHg 60%
    16:00 -9°C° 0 mm 4 mps 746 mmHg 63%
    17:00 -9°C° 0 mm 4 mps 747 mmHg 66%
    18:00 -8°C° 0 mm 3 mps 747 mmHg 68%
    19:00 -8°C° 0 mm 3 mps 747 mmHg 71%
    20:00 -8°C° 0 mm 2 mps 747 mmHg 73%
    21:00 -8°C° 0 mm 3 mps 747 mmHg 72%
    22:00 -8°C° 0 mm 3 mps 747 mmHg 71%
    23:00 -8°C° 0 mm 3 mps 748 mmHg 71%

    24 January, Friday

    Time Temperature Precipitation Wind Pressure Humidity
    00:00 -8°C° 0 mm 3 mps 747 mmHg 68%
    01:00 -7°C° 0 mm 3 mps 746 mmHg 64%
    02:00 -7°C° 0 mm 3 mps 746 mmHg 61%
    03:00 -7°C° 0.2 mm 3 mps 745 mmHg 72%
    04:00 -7°C° 0.2 mm 4 mps 744 mmHg 82%
    05:00 -7°C° 0.2 mm 4 mps 743 mmHg 92%
    06:00 -5°C° 0.2 mm 4 mps 743 mmHg 93%
    07:00 -5°C° 0.2 mm 4 mps 742 mmHg 94%
    08:00 -4°C° 0.2 mm 4 mps 742 mmHg 95%
    09:00 -4°C° 0.2 mm 4 mps 741 mmHg 94%
    10:00 -3°C° 0.2 mm 4 mps 741 mmHg 92%
    11:00 -2°C° 0.2 mm 4 mps 741 mmHg 91%
    12:00 -1°C° 0 mm 4 mps 740 mmHg 92%
    13:00 -1°C° 0 mm 4 mps 740 mmHg 92%
    14:00 0°C° 0 mm 4 mps 739 mmHg 93%
    15:00 0°C° 0 mm 4 mps 739 mmHg 94%
    16:00 +1°C° 0 mm 4 mps 739 mmHg 95%
    17:00 +1°C° 0 mm 5 mps 738 mmHg 95%
    18:00 +1°C° 0.1 mm 5 mps 738 mmHg 95%
    19:00 +1°C° 0.1 mm 5 mps 738 mmHg 95%
    20:00 +1°C° 0.1 mm 5 mps 738 mmHg 95%
    21:00 +1°C° 0.2 mm 5 mps 738 mmHg 95%
    22:00 +1°C° 0.2 mm 4 mps 738 mmHg 96%
    23:00 +1°C° 0.2 mm 4 mps 738 mmHg 96%

    25 January, Saturday

    Time Temperature Precipitation Wind Pressure Humidity
    00:00 +1°C° 0.5 mm 4 mps 738 mmHg 96%
    01:00 +1°C° 0.5 mm 4 mps 738 mmHg 96%
    02:00 +1°C° 0.5 mm 4 mps 738 mmHg 97%
    03:00 +1°C° 0.3 mm 3 mps 738 mmHg 97%
    04:00 +1°C° 0.3 mm 3 mps 738 mmHg 97%
    05:00 +1°C° 0.3 mm 3 mps 738 mmHg 98%
    06:00 +1°C° 0.1 mm 3 mps 738 mmHg 97%
    07:00 +1°C° 0.1 mm 3 mps 739 mmHg 97%
    08:00 +1°C° 0.1 mm 3 mps 739 mmHg 96%
    09:00 +1°C° 0.1 mm 3 mps 739 mmHg 96%
    10:00 +1°C° 0.1 mm 3 mps 740 mmHg 95%
    11:00 +2°C° 0.1 mm 3 mps 740 mmHg 94%
    12:00 +1°C° 0.1 mm 4 mps 740 mmHg 94%
    13:00 +1°C° 0.1 mm 4 mps 740 mmHg 94%
    14:00 +1°C° 0.1 mm 4 mps 740 mmHg 94%
    15:00 0°C° 0.1 mm 4 mps 741 mmHg 94%
    16:00 0°C° 0.1 mm 4 mps 741 mmHg 93%
    17:00 +1°C° 0.1 mm 3 mps 741 mmHg 93%
    18:00 0°C° 0 mm 3 mps 742 mmHg 92%
    19:00 -1°C° 0 mm 3 mps 742 mmHg 92%
    20:00 -1°C° 0 mm 3 mps 743 mmHg 92%
    21:00 -2°C° 0 mm 3 mps 743 mmHg 93%
    22:00 -2°C° 0 mm 3 mps 743 mmHg 93%
    23:00 -2°C° 0 mm 3 mps 744 mmHg 94%
    Show more